Date String (YYYY-MM-DD hh:mm:ss) UTC,Instrument flags,Ambient pressure (hPa),Sample flow (lpm),Bypass flow (lpm),Sample temperature (°C),Ambient temperature (°C),ASC tube jacket temperature (°C),LED temperature (°C),Box temperature (°C),Sample RH (%),Span deviation,Mass concentration (μg/m³),Mass concentration (μg/m³),Mass concentration (μg/m³)
DateTimeUTC,F1_M11,P_M11,Q1_M11,Q2_M11,T1_M11,T2_M11,T3_M11,T4_M11,T5_M11,U1_M11,ZSPAN_M11,X2_M11,X0_M11,X1_M11
2021-10-14 06:00:00,,0821.4,5.01,0.00,23.9,23.2,00.0,33.1,25.6,15.9,0000.0,0003.24,0008.59,0002.07
2021-10-14 06:01:00,,0821.4,5.00,0.00,23.9,23.2,00.0,33.1,25.7,15.9,0000.0,0003.20,0008.43,0002.07
2021-10-14 06:02:00,,0821.4,4.99,0.00,23.9,23.2,00.0,33.1,25.7,15.9,0000.0,0003.23,0008.90,0002.07
2021-10-14 06:03:00,,0821.4,5.01,0.00,23.9,23.2,00.0,33.1,25.7,15.9,0000.0,0003.24,0008.23,0002.07
2021-10-14 06:04:00,,0821.4,5.01,0.00,23.9,23.3,00.0,33.1,25.7,15.9,0000.0,0003.20,0008.06,0002.06
2021-10-14 06:05:00,,0821.4,4.99,0.00,23.9,23.3,00.0,33.1,25.7,15.9,0000.0,0003.18,0008.04,0002.08
2021-10-14 06:06:00,,0821.4,5.01,0.00,23.9,23.2,00.0,33.1,25.6,15.9,0000.0,0003.17,0008.06,0002.09
2021-10-14 06:07:00,,0821.4,5.00,0.00,23.9,23.1,00.0,33.0,25.6,15.9,0000.0,0003.15,0008.17,0002.07
2021-10-14 06:08:00,,0821.4,4.99,0.00,23.9,23.1,00.0,33.0,25.6,15.9,0000.0,0003.14,0008.07,0002.09
2021-10-14 06:09:00,,0821.5,5.01,0.00,23.9,23.1,00.0,33.0,25.6,15.9,0000.0,0003.14,0008.30,0002.10
2021-10-14 06:10:00,,0821.4,5.00,0.00,23.8,23.1,00.0,33.0,25.5,16.0,0000.0,0003.16,0008.45,0002.13
2021-10-14 06:11:00,,0821.5,5.00,0.00,23.8,23.1,00.0,33.0,25.5,16.0,0000.0,0003.14,0008.31,0002.12
2021-10-14 06:12:00,,0821.5,5.01,0.00,23.8,23.1,00.0,33.0,25.5,16.1,0000.0,0003.16,0008.41,0002.14
2021-10-14 06:13:00,,0821.4,4.99,0.00,23.8,23.1,00.0,33.0,25.5,16.1,0000.0,0003.15,0008.76,0002.14
2021-10-14 06:14:00,,0821.4,5.00,0.00,23.8,23.1,00.0,33.0,25.5,16.1,0000.0,0003.14,0008.89,0002.15
2021-10-14 06:15:00,,0821.4,5.00,0.00,23.8,23.1,00.0,33.0,25.5,16.2,0000.0,0003.18,0009.18,0002.17
2021-10-14 06:16:00,,0821.4,5.01,0.00,23.8,23.1,00.0,33.0,25.5,16.2,0000.0,0003.22,0009.45,0002.16
2021-10-14 06:17:00,,0821.4,5.00,0.00,23.8,23.2,00.0,33.0,25.5,16.2,0000.0,0003.22,0010.70,0002.17
2021-10-14 06:18:00,,0821.4,5.01,0.00,23.8,23.1,00.0,33.0,25.6,16.3,0000.0,0003.23,0011.27,0002.19
2021-10-14 06:19:00,,0821.4,5.00,0.00,23.8,23.1,00.0,33.0,25.6,16.4,0000.0,0003.23,0011.95,0002.19
2021-10-14 06:20:00,,0821.4,4.99,0.00,23.8,23.1,00.0,32.9,25.5,16.5,0000.0,0003.23,0012.36,0002.20
2021-10-14 06:21:00,,0821.5,5.00,0.00,23.8,23.1,00.0,32.9,25.5,16.6,0000.0,0003.24,0012.58,0002.21
2021-10-14 06:22:00,,0821.4,5.01,0.00,23.8,23.1,00.0,32.9,25.5,16.8,0000.0,0003.26,0012.48,0002.23
2021-10-14 06:23:00,,0821.4,4.99,0.00,23.8,23.1,00.0,32.9,25.5,16.8,0000.0,0003.29,0012.56,0002.25
2021-10-14 06:24:00,,0821.4,5.01,0.00,23.8,23.1,00.0,32.9,25.5,16.8,0000.0,0003.32,0012.34,0002.26
2021-10-14 06:25:00,,0821.4,5.00,0.00,23.7,23.1,00.0,32.9,25.5,16.7,0000.0,0003.39,0012.29,0002.30
2021-10-14 06:26:00,,0821.4,5.00,0.00,23.7,23.1,00.0,32.9,25.5,16.8,0000.0,0003.39,0012.19,0002.31
2021-10-14 06:27:00,,0821.4,5.00,0.00,23.7,23.1,00.0,32.9,25.5,16.7,0000.0,0003.36,0012.40,0002.32
2021-10-14 06:28:00,,0821.4,5.00,0.00,23.7,23.1,00.0,32.9,25.5,16.6,0000.0,0003.34,0011.61,0002.32
2021-10-14 06:29:00,,0821.4,5.01,0.00,23.7,23.0,00.0,32.9,25.5,16.6,0000.0,0003.34,0011.39,0002.33
2021-10-14 06:30:00,,0821.4,4.99,0.00,23.7,23.0,00.0,32.9,25.5,16.6,0000.0,0003.38,0011.26,0002.34
2021-10-14 06:31:00,,0821.4,5.01,0.00,23.7,22.9,00.0,32.9,25.4,16.7,0000.0,0003.37,0010.76,0002.35
2021-10-14 06:32:00,,0821.4,5.00,0.00,23.7,22.9,00.0,32.9,25.4,16.7,0000.0,0003.35,0010.12,0002.35
2021-10-14 06:33:00,,0821.4,5.00,0.00,23.6,22.8,00.0,32.8,25.3,16.7,0000.0,0003.34,0010.11,0002.35
2021-10-14 06:34:00,,0821.4,5.00,0.00,23.6,22.8,00.0,32.8,25.3,16.7,0000.0,0003.31,0011.02,0002.36
2021-10-14 06:35:00,,0821.4,4.99,0.00,23.6,22.8,00.0,32.8,25.3,16.6,0000.0,0003.29,0010.58,0002.37
2021-10-14 06:36:00,,0821.4,5.02,0.00,23.6,22.8,00.0,32.8,25.3,16.5,0000.0,0003.26,0010.26,0002.37
2021-10-14 06:37:00,,0821.4,5.00,0.00,23.6,22.8,00.0,32.8,25.3,16.4,0000.0,0003.23,0010.06,0002.37
2021-10-14 06:38:00,,0821.4,5.01,0.00,23.6,22.8,00.0,32.8,25.3,16.3,0000.0,0003.28,0009.84,0002.39
2021-10-14 06:39:00,,0821.4,4.99,0.00,23.6,22.9,00.0,32.8,25.3,16.3,0000.0,0003.34,0009.48,0002.42
2021-10-14 06:40:00,,0821.4,5.01,0.00,23.6,22.9,00.0,32.8,25.3,16.3,0000.0,0003.35,0008.83,0002.43
2021-10-14 06:41:00,,0821.4,4.99,0.00,23.6,22.9,00.0,32.8,25.3,16.3,0000.0,0003.35,0008.42,0002.45
2021-10-14 06:42:00,,0821.4,5.00,0.00,23.6,22.9,00.0,32.7,25.4,16.2,0000.0,0003.35,0008.49,0002.46
2021-10-14 06:43:00,,0821.4,5.01,0.00,23.6,22.9,00.0,32.7,25.3,16.2,0000.0,0003.38,0008.99,0002.48
2021-10-14 06:44:00,,0821.4,5.01,0.00,23.6,22.9,00.0,32.7,25.3,16.2,0000.0,0003.42,0009.24,0002.53
2021-10-14 06:45:00,,0821.4,4.99,0.00,23.6,22.9,00.0,32.7,25.3,16.3,0000.0,0003.44,0008.76,0002.57
2021-10-14 06:46:00,,0821.4,5.00,0.00,23.6,22.9,00.0,32.7,25.3,16.3,0000.0,0003.46,0008.23,0002.60
2021-10-14 06:47:00,,0821.4,5.00,0.00,23.6,22.8,00.0,32.7,25.3,16.4,0000.0,0003.46,0008.19,0002.61
2021-10-14 06:48:00,,0821.4,5.01,0.00,23.5,22.8,00.0,32.7,25.3,16.4,0000.0,0003.48,0008.23,0002.64
2021-10-14 06:49:00,,0821.4,4.99,0.00,23.5,22.8,00.0,32.7,25.2,16.5,0000.0,0003.47,0008.48,0002.66
2021-10-14 06:50:00,,0821.4,4.99,0.00,23.5,22.8,00.0,32.7,25.3,16.4,0000.0,0003.44,0009.12,0002.66
2021-10-14 06:51:00,,0821.5,5.01,0.00,23.5,22.8,00.0,32.7,25.3,16.4,0000.0,0003.43,0009.34,0002.67
2021-10-14 06:52:00,,0821.4,5.01,0.00,23.5,22.8,00.0,32.7,25.3,16.7,0000.0,0003.42,0009.69,0002.67
2021-10-14 06:53:00,,0821.4,4.99,0.00,23.5,22.8,00.0,32.7,25.3,16.8,0000.0,0003.39,0009.55,0002.68
2021-10-14 06:54:00,,0821.5,5.01,0.00,23.5,22.8,00.0,32.7,25.3,16.7,0000.0,0003.37,0009.53,0002.68
2021-10-14 06:55:00,,0821.4,4.99,0.00,23.5,22.8,00.0,32.7,25.2,16.6,0000.0,0003.33,0009.48,0002.65
2021-10-14 06:56:00,,0821.4,5.01,0.00,23.5,22.8,00.0,32.7,25.2,16.6,0000.0,0003.33,0009.36,0002.61
2021-10-14 06:57:00,,0821.4,4.99,0.00,23.5,22.8,00.0,32.7,25.2,16.6,0000.0,0003.32,0009.53,0002.59
2021-10-14 06:58:00,,0821.4,5.01,0.00,23.5,22.8,00.0,32.6,25.2,16.5,0000.0,0003.35,0009.75,0002.59
2021-10-14 06:59:00,,0821.4,4.99,0.00,23.5,22.8,00.0,32.6,25.2,16.5,0000.0,0003.35,0009.97,0002.57
